Location: ????????
(55.3155°N, 39.2900°E)
Time: 18:49:10
(UTC+00:00)

ACS3 Solar Sail - Pass Details

Date: 20 November 2025
Orbit: 889 x 1003 km, 97.3° (Epoch: 06 December)

Event Time Altitude Azimuth Distance (km) Brightness Sun altitude
Rises 00:11:43 0° 16° (NNE) 3,575 5.2 -40.6°
Reaches altitude 10° 00:14:15 10° 22° (NNE) 2,645 4.5 -40.3°
Enters shadow 00:17:11 28° 39° (NE) 1,679 3.4 -39.9°
